星链-5335 (STARLINK-5335 )

导读

STARLINK-5335是美国太空探索技术公司(SpaceX)星链(Starlink)互联网星座中的一颗卫星,于2023年5月14日发射入轨。星链计划旨在搭建全球卫星宽带互联网,为全球偏远地区、海洋等地面网络难以覆盖区域提供高速网络接入服务,该卫星也是星链低轨星座组网扩容的一部分。

基本信息
目录编号:
56508
目录名称:
STARLINK-5335
国际标识:
2023-065F
轨道中心:
EARTH
卫星名称:
星链-5335
卫星全名:
星链-5335 (STARLINK-5335 )
卫星状态:
在轨 (已飞行1130 天)
发射日期:
2023-05-14 UTC
国别 :
美国 (US)
星等 :
--
轨道信息
数据来源 国际轨道数据
星历时间: 2026-06-17T05:02:37+0800
12小时前
查看轨道信息
半长轴: 6861.193km
偏心率: 0.0001192
轨道倾角: 43.002°
近地点辐角 271.097°
升交点赤经 11.941°
平近点角 88.974°
近地点: 482.238km
远地点: 483.874km
周期: 94.267分钟
每日圈数: 15.27578
详细信息
固有亮度:
5
最大亮度:
2.5
卫星平台:
Starlink v1.5
覆盖范围:
全球
运营商:
太空探索技术公司
运营商所在国:
美国
制造商(研发单位):
太空探索技术公司
制造商所在国:
美国
使用方式:
暂无
卫星简介
星链(Starlink)计划是由太空探索技术公司(SpaceX)提出的一个巨型低轨卫星互联网星座项目,计划在2019年至2024年间在太空搭建由约1.2万颗卫星组成的“星链”网络,其中1584颗将部署在地球上空550千米处的近地轨道,并从2020年开始工作。该卫星仍在工作。
2D轨道图
3D轨道图
轨道高度分析图
轨道倾角分析图
轨道综合分析图
查看轨道综合分析图